TELSTAR 12V             
1 41036U 15068A   19261.41114777 -.00000122  00000-0  00000+0 0  9990
2 41036   0.0083 232.8089 0002030 289.8646 327.4193  1.00273058 14029
H-2A R/B                
1 41037U 15068B   19260.73192208 -.00000025  00000-0  00000-0 0  9993
2 41037  19.2274 259.6013 6477950  15.1683 357.5390  2.12568215 29634